SCP
0 0 0 0 0 0 0 0 0 0 0 0 0 1 1 1 1 1 1 2 2 3 2 2 2 2 2 2 2 2 2 2 2 1 1 1 1 1 1 1 1 1 1
0 0 0 0 0 0 1 1 1 1 0 0 0 0 1 1 1 1 1 1 2 3 2 2 2 1 1 1 2 2 2 2 2 2 1 1 1 1 1 1 1 1 1
0 0 0 0 0 0 1 1 1 1 0 0 0 0 0 1 1 1 1 1 2 3 3 2 2 1 1 1 1 1 1 1 2 2 1 1 1 1 1 1 1 1 1
1 1 0 0 0 0 0 1 0 0 0 0 0 0 0 0 0 0 1 1 1 2 2 2 2 2 1 1 1 1 1 1 1 1 1 1 1 1 1 1 1 1 1
1 1 1 0 0 0 0 0 0 0 0 0 0 0 0 0 0 0 1 1 1 1 2 2 2 2 1 1 1 1 1 1 1 1 1 1 1 1 1 1 1 1 1
1 1 1 0 0 0 0 0 0 0 0 0 0 0 0 0 0 1 1 1 1 1 1 2 2 2 1 1 1 2 1 1 1 1 1 1 1 1 1 1 1 1 1
1 1 1 0 0 0 0 0 0 0 0 0 0 0 0 0 0 0 1 1 1 1 1 1 1 1 1 1 2 2 2 1 1 1 1 1 1 1 1 1 1 1 1
1 1 1 0 0 0 0 0 0 0 0 0 0 0 0 0 0 0 0 1 1 1 1 1 1 1 1 1 2 2 2 1 1 1 1 1 1 1 1 1 1 1 1
1 1 1 1 1 1 1 1 1 1 0 0 0 1 0 0 0 0 0 0 1 1 1 1 1 1 1 1 2 2 1 1 1 1 1 1 1 1 1 1 1 1 1
1 1 1 1 1 1 1 1 1 1 1 1 1 1 1 1 1 0 0 0 1 1 1 1 1 1 1 1 1 1 1 1 1 1 1 1 1 1 1 1 1 1 1
1 1 1 1 1 1 1 1 1 1 1 1 1 1 1 1 1 1 1 0 0 1 1 1 1 1 1 1 1 1 1 1 1 1 1 1 1 1 1 1 1 1 1
1 1 1 1 1 1 1 1 1 1 1 1 1 1 1 1 1 1 1 0 0 1 1 1 1 1 1 1 1 1 1 1 1 1 1 1 1 1 1 1 1 1 1
1 1 1 1 1 1 1 1 1 1 1 1 1 1 1 1 1 1 1 0 1 1 1 1 1 0 1 1 1 1 1 1 1 1 1 1 1 1 1 1 1 1 1
1 1 1 1 1 1 1 1 1 1 1 1 1 1 1 1 1 1 1 0 0 0 1 1 0 0 0 1 1 1 1 1 1 1 0 0 1 1 1 1 1 1 1
1 1 1 1 1 1 1 1 1 1 1 1 2 1 1 1 1 1 1 1 0 0 0 0 0 0 0 0 0 1 1 1 1 0 0 0 0 0 1 1 1 1 1
1 1 1 1 1 1 1 1 1 1 1 1 2 2 2 1 1 1 1 1 1 1 0 0 0 0 0 0 0 0 0 0 0 0 0 0 0 0 0 0 1 1 1
1 1 1 1 1 1 1 1 2 2 2 2 2 2 2 2 1 1 1 1 1 1 1 1 1 0 0 0 0 0 0 0 0 0 0 0 0 0 0 0 0 0 1
1 1 1 1 1 1 2 2 2 2 2 2 2 2 2 1 1 1 1 1 1 2 2 2 1 1 0 0 0 0 0 0 0 0 0 0 0 0 0 0 0 0 0
1 1 1 1 1 2 2 2 2 2 2 3 3 3 2 1 1 1 1 1 2 2 2 2 2 2 1 0 0 0 0 0 0 0 0 0 0 0 0 0 0 0 0
1 2 2 2 2 2 2 2 2 2 3 3 3 3 2 1 1 1 1 1 2 2 3 3 3 2 1 1 0 0 0 0 0 0 0 0 0 0 0 0 0 0 0
3 3 4 4 4 3 3 3 3 3 3 3 3 3 2 1 1 1 1 1 2 2 3 3 3 3 2 1 1 0 0 0 0 0 0 0 0 0 0 0 0 0 0
4 4 5 5 4 4 3 3 3 4 4 4 3 2 2 1 1 1 1 1 1 2 2 2 2 2 2 1 1 0 0 0 0 0 0 1 0 0 0 0 0 0 0
4 4 4 4 4 4 3 3 3 3 3 3 3 2 2 1 2 2 1 1 1 1 1 1 1 1 1 1 1 0 0 0 0 0 0 0 1 1 1 0 0 0 0
4 4 3 3 3 3 2 2 2 2 2 2 2 2 2 2 2 2 2 1 1 1 1 1 1 0 0 0 0 0 0 0 0 0 0 0 1 1 1 1 1 0 0
4 4 3 3 3 2 1 1 1 1 1 1 1 1 1 1 1 1 1 1 2 1 1 1 0 0 0 0 0 0 0 0 0 0 0 1 1 1 1 1 1 1 0
4 3 3 3 2 2 1 1 0 0 0 0 1 1 1 1 1 1 1 1 1 1 1 1 0 0 0 0 0 0 0 0 0 0 0 1 1 1 2 2 1 1 1
Wind_Speed
2 2 1 1 1 1 1 1 1 1 1 1 1 2 3 3 3 2 2 6 8 9 10 10 11 10 10 10 10 10 10 10 10 10 10 11 11 10 10 11 10 10 9
3 2 1 1 1 1 1 2 2 2 1 1 1 2 3 2 3 3 2 4 7 8 9 10 10 10 10 10 10 10 10 9 9 9 10 10 11 11 11 12 11 11 10
3 3 2 1 1 1 1 1 1 1 1 1 1 2 2 2 3 4 3 2 3 6 8 9 10 10 11 11 11 10 10 9 9 9 9 9 10 10 11 11 11 11 11
3 3 2 2 1 1 1 1 1 1 0 0 0 1 1 2 3 3 3 3 2 3 4 7 8 9 10 10 10 10 10 9 9 9 9 9 8 8 9 10 11 10 10
3 3 2 1 1 1 1 1 1 1 1 0 1 1 1 2 2 3 3 3 3 3 2 4 7 8 9 9 9 9 9 8 8 8 8 8 8 8 8 9 9 9 10
3 3 2 1 1 1 0 1 1 0 1 1 0 1 1 1 1 2 3 2 2 3 3 3 3 4 6 6 6 8 8 8 8 8 8 8 8 8 7 8 8 9 9
3 3 2 1 2 1 1 1 1 1 0 1 2 2 2 1 1 1 1 2 2 2 2 2 2 1 2 4 5 6 8 9 9 8 8 8 8 8 7 7 8 9 9
3 3 3 2 2 1 1 1 1 1 0 1 2 1 2 3 2 1 1 2 2 1 2 3 2 2 2 2 3 5 7 8 8 8 8 8 8 7 7 8 7 8 8
3 3 3 2 2 2 1 1 1 2 1 1 1 3 2 1 2 2 1 0 1 1 1 2 2 2 2 1 1 3 7 7 8 8 8 7 7 7 7 8 8 8 8
3 3 2 2 2 2 2 1 2 2 2 1 1 0 2 3 2 1 2 1 1 1 1 2 2 2 2 1 2 2 4 5 6 6 6 6 6 7 7 7 8 8 7
2 2 3 2 2 2 2 2 1 1 2 2 1 0 0 0 1 2 1 1 1 1 1 1 1 1 1 2 2 2 4 4 4 4 4 5 5 7 7 7 8 8 8
1 2 2 2 2 2 2 1 1 1 1 1 1 1 2 1 1 2 2 1 1 2 1 1 1 1 2 2 2 2 4 4 4 3 3 4 4 5 6 6 7 7 8
1 2 2 2 2 2 2 2 1 1 1 2 2 1 1 2 2 2 2 1 1 1 1 1 1 2 2 1 2 2 3 3 3 3 3 3 3 4 4 4 5 6 6
3 3 2 2 2 2 2 2 1 1 1 2 2 2 1 1 1 2 2 2 1 1 1 2 1 2 2 1 2 2 2 3 3 3 3 3 3 3 3 3 3 4 4
3 3 3 2 2 2 2 2 1 1 1 1 1 1 1 1 1 1 2 3 3 1 2 2 2 2 1 1 2 2 2 4 4 4 3 3 3 3 4 3 3 3 3
2 3 3 2 2 2 2 2 2 1 1 1 1 1 0 1 1 1 2 1 2 3 2 2 2 2 2 1 1 2 3 4 4 4 4 4 3 3 3 4 4 4 4
3 3 3 3 3 2 2 2 2 2 2 1 1 0 1 1 0 1 1 1 1 2 2 2 1 1 0 1 1 1 2 2 2 5 5 4 4 4 3 3 3 3 3
3 3 3 3 3 3 3 3 3 2 2 2 1 1 1 1 1 1 1 1 2 2 3 2 2 1 1 2 1 2 2 2 2 4 4 5 5 4 4 3 3 3 4
3 3 3 3 3 3 3 3 3 3 2 3 2 2 2 1 1 1 1 1 1 1 2 2 2 1 1 1 0 1 1 1 3 3 4 4 5 5 5 5 5 5 5
4 3 3 3 3 3 3 3 3 3 2 2 3 3 3 2 2 2 1 1 1 1 1 1 1 1 1 1 0 0 1 1 2 2 2 3 4 5 6 6 6 6 6
5 4 3 3 3 3 3 3 3 3 3 2 2 2 3 3 3 2 1 2 2 1 1 1 1 1 1 1 1 1 1 2 2 1 1 2 2 2 4 6 7 7 7
3 3 4 4 4 3 4 5 4 3 2 2 2 2 2 2 2 2 2 3 3 3 3 2 2 2 3 3 2 2 1 1 2 2 1 3 2 3 4 4 7 8 8
3 3 4 4 4 4 4 5 5 3 3 3 3 2 2 2 2 2 1 1 2 4 5 4 4 4 4 4 3 2 3 3 4 3 2 3 2 3 4 4 8 8 8
4 3 3 4 3 3 4 4 3 2 2 3 3 3 3 2 2 2 2 1 1 2 3 3 4 4 4 4 4 4 4 2 2 2 2 2 2 3 3 3 6 7 7
4 4 3 4 3 3 4 4 4 2 2 2 2 2 2 2 3 3 3 2 1 3 3 3 3 4 4 4 3 1 1 1 2 3 1 2 2 2 2 3 3 5 6
4 3 2 3 3 3 4 5 5 2 2 1 1 1 2 3 3 3 3 3 3 3 2 2 2 3 2 3 3 3 3 2 2 2 2 2 1 1 1 2 1 2 2
Wind_Direction
156 157 178 169 165 167 173 173 181 178 214 220 192 181 185 197 187 184 194 189 190 187 190 194 197 199 200 202 203 203 205 206 208 207 207 210 211 214 216 214 216 219 224
159 148 151 161 190 190 184 180 183 187 202 186 200 189 179 176 182 179 184 190 191 191 197 200 201 202 206 208 207 206 208 209 209 208 210 213 215 218 220 217 219 222 226
150 146 147 148 212 205 167 147 145 151 152 151 195 203 186 179 176 183 184 191 195 197 202 205 206 208 209 210 209 209 210 210 213 212 210 214 218 223 224 219 221 221 223
147 143 147 158 174 155 125 127 129 107 86 137 217 235 210 193 186 189 187 191 194 201 203 202 207 210 212 215 213 213 212 214 214 215 214 215 218 223 226 224 223 220 220
148 143 151 162 139 120 110 144 131 145 131 102 223 241 227 203 203 194 192 194 197 201 204 207 210 209 213 217 216 215 213 210 209 212 215 217 218 220 224 221 221 219 217
144 134 135 137 130 116 101 105 138 127 160 222 278 341 273 222 204 202 200 199 201 202 200 208 213 216 221 227 220 219 216 213 213 215 215 217 220 222 222 221 219 220 219
142 133 142 131 129 135 175 152 132 91 25 79 67 12 357 338 241 213 190 183 190 191 170 185 188 185 208 222 220 222 222 220 219 220 220 220 222 222 223 225 221 220 219
150 153 148 144 144 139 131 120 117 118 240 116 120 82 6 355 348 315 170 170 177 180 180 190 182 180 197 214 218 219 226 225 222 221 223 224 224 221 221 224 221 220 217
151 152 152 147 145 144 162 180 150 149 200 287 148 141 145 220 309 332 322 146 171 184 212 203 189 194 195 201 218 221 224 225 226 227 228 226 223 219 220 225 224 221 217
159 163 159 156 155 152 167 195 164 163 152 220 299 229 175 166 159 289 322 319 234 211 223 209 196 199 194 191 207 214 220 216 220 223 224 223 219 213 218 228 225 218 214
178 173 169 159 158 163 171 171 158 154 162 168 178 193 71 83 138 157 246 298 328 293 238 216 197 204 212 210 215 215 216 212 212 221 227 227 225 223 222 229 226 219 217
196 191 172 164 167 170 170 177 177 161 173 160 160 156 159 168 189 168 197 217 247 279 258 236 216 221 228 224 227 223 208 201 201 210 225 229 230 230 227 232 219 219 220
194 212 187 177 180 187 183 173 166 182 179 169 181 190 181 191 185 166 162 189 220 283 308 282 243 226 225 220 232 224 208 195 194 206 220 219 220 221 219 217 205 214 219
193 195 188 184 190 189 186 173 171 199 185 191 202 194 178 200 175 165 168 159 153 317 315 280 285 246 240 221 222 210 211 197 196 202 215 218 217 211 212 213 203 215 217
190 188 189 191 195 186 184 171 173 197 177 191 206 192 190 216 183 182 166 162 159 199 268 269 277 269 247 223 221 213 222 204 201 202 207 215 215 212 212 202 200 214 210
192 180 183 186 187 193 184 168 172 187 160 190 186 145 231 238 203 174 176 178 165 172 223 247 245 262 250 251 233 222 226 205 204 204 206 209 209 208 210 204 203 208 208
183 184 186 183 190 202 189 172 189 176 165 196 229 194 248 212 186 189 171 170 179 165 209 265 264 279 271 265 276 250 224 208 223 213 212 211 206 205 209 204 200 204 206
186 188 183 183 198 201 188 179 194 192 181 198 226 230 262 214 172 196 168 185 205 195 187 228 277 280 258 241 234 235 235 221 233 226 216 214 212 210 207 207 217 217 218
192 191 181 188 196 192 189 193 192 196 197 204 211 207 224 185 214 227 181 209 229 212 175 182 242 261 264 244 263 276 263 267 246 236 222 219 219 217 211 214 219 220 222
193 197 192 196 197 193 194 195 193 202 209 215 211 204 204 190 202 202 194 210 200 167 153 168 229 273 270 269 168 230 296 291 274 262 237 225 228 227 226 229 230 228 223
194 194 195 202 203 201 206 200 206 210 208 223 232 221 215 197 196 192 193 197 174 165 175 186 222 269 276 254 238 223 241 280 278 251 262 250 230 238 241 243 239 237 230
201 195 201 204 214 224 217 212 202 202 200 205 222 235 227 200 199 194 196 195 185 189 199 201 223 230 243 235 229 221 212 237 271 246 200 252 211 230 240 237 239 236 231
205 210 213 208 218 227 218 209 198 185 192 201 204 213 237 222 202 206 227 241 246 233 212 199 209 227 228 225 209 226 226 222 236 234 187 251 238 237 241 242 237 236 232
200 209 218 216 215 227 215 203 188 175 188 208 217 214 208 221 214 178 176 216 273 267 245 220 213 228 234 231 212 212 219 237 263 252 182 226 245 247 261 255 242 232 228
202 208 209 207 206 219 200 187 173 165 186 224 232 205 183 196 215 186 164 186 264 286 277 257 245 247 252 246 216 168 193 190 272 271 213 197 234 254 266 261 250 235 231
202 204 211 203 194 200 205 197 181 167 183 210 249 240 223 209 218 203 185 189 227 259 280 300 296 295 281 268 239 201 193 197 226 260 242 184 214 193 293 281 258 241 235